Location: Bernay
(48.6766°N, 2.9386°E)
Time: 06:36:28
(UTC+00:00)

BREEZE M DEB (TANK) - Pass Details

Date: 12 January 2026
Orbit: 296 x 13742 km, 49.5° (Epoch: 16 February)

Event Time Altitude Azimuth Distance (km) Brightness Sun altitude
Rises 17:10:04 0° 284° (WNW) 2,065 6.7 -8.7°
Reaches altitude 10° 17:11:49 10° 277° (W) 1,161 5.5 -9.0°
Maximum altitude 17:13:52 49° 199° (SSW) 436 2.6 -9.3°
Drops below altitude 10° 17:16:52 10° 122° (ESE) 1,697 5.0 -9.8°
Enters shadow 17:20:23 -1° 118° (ESE) 3,489 6.5 -10.3°
